When you browse on this site, cookies collect data to enhance your experience and personalize the content and advertising you see.
Visit our Privacy Policy to learn more. By continuing to use the site, you agree to this use of cookies and data.
  • In Spain
  • List of Countries
  • For 7 days
  • Water Temperature
  • Satellite Maps
  • Weather Map
  • Weather Widgets
  • user-avatar
    Login

    Hourly Weather Maksaky

    Today, 23 May, Thursday

    Time Temperature Precipitation Wind Pressure Humidity
    00:00 +15°C° 0 mm 1 mps 746 mmHg 93%
    01:00 +14°C° 0 mm 1 mps 746 mmHg 94%
    02:00 +13°C° 0 mm 0 mps 745 mmHg 93%
    03:00 +14°C° 0 mm 1 mps 746 mmHg 93%
    04:00 +15°C° 0 mm 1 mps 746 mmHg 93%
    05:00 +15°C° 0 mm 1 mps 746 mmHg 93%
    06:00 +16°C° 0 mm 1 mps 746 mmHg 88%
    07:00 +19°C° 0 mm 1 mps 746 mmHg 82%
    08:00 +19°C° 0 mm 0 mps 746 mmHg 77%
    09:00 +20°C° 0 mm 0 mps 746 mmHg 71%
    10:00 +21°C° 0 mm 0 mps 746 mmHg 65%
    11:00 +25°C° 0 mm 1 mps 746 mmHg 59%
    12:00 +25°C° 0 mm 1 mps 746 mmHg 57%
    13:00 +25°C° 0 mm 1 mps 746 mmHg 55%
    14:00 +26°C° 0 mm 2 mps 746 mmHg 54%
    15:00 +26°C° 0.5 mm 2 mps 746 mmHg 57%
    16:00 +25°C° 0.5 mm 2 mps 746 mmHg 61%
    17:00 +25°C° 0.5 mm 2 mps 746 mmHg 65%
    18:00 +23°C° 0.2 mm 1 mps 746 mmHg 69%
    19:00 +22°C° 0.2 mm 1 mps 746 mmHg 73%
    20:00 +20°C° 0.2 mm 1 mps 746 mmHg 77%
    21:00 +19°C° 0.2 mm 1 mps 746 mmHg 78%
    22:00 +19°C° 0.2 mm 1 mps 746 mmHg 79%
    23:00 +18°C° 0.2 mm 1 mps 746 mmHg 80%

    Tomorrow, 24 May, Friday

    Time Temperature Precipitation Wind Pressure Humidity
    00:00 +18°C° 0 mm 1 mps 746 mmHg 82%
    01:00 +16°C° 0 mm 1 mps 746 mmHg 84%
    02:00 +16°C° 0 mm 1 mps 747 mmHg 86%
    03:00 +16°C° 0 mm 1 mps 746 mmHg 86%
    04:00 +16°C° 0 mm 1 mps 746 mmHg 87%
    05:00 +16°C° 0 mm 1 mps 746 mmHg 87%
    06:00 +19°C° 0 mm 1 mps 747 mmHg 81%
    07:00 +20°C° 0 mm 1 mps 747 mmHg 75%
    08:00 +22°C° 0 mm 1 mps 747 mmHg 69%
    09:00 +24°C° 0.4 mm 1 mps 747 mmHg 63%
    10:00 +23°C° 0.4 mm 0 mps 747 mmHg 57%
    11:00 +24°C° 0.4 mm 0 mps 747 mmHg 51%
    12:00 +25°C° 0 mm 0 mps 746 mmHg 49%
    13:00 +25°C° 0 mm 0 mps 746 mmHg 48%
    14:00 +25°C° 0 mm 0 mps 746 mmHg 46%
    15:00 +25°C° 0 mm 0 mps 746 mmHg 49%
    16:00 +25°C° 0 mm 0 mps 746 mmHg 52%
    17:00 +24°C° 0 mm 0 mps 746 mmHg 55%
    18:00 +23°C° 0 mm 0 mps 746 mmHg 59%
    19:00 +21°C° 0 mm 0 mps 746 mmHg 64%
    20:00 +21°C° 0 mm 1 mps 746 mmHg 69%
    21:00 +20°C° 1.1 mm 1 mps 746 mmHg 74%
    22:00 +17°C° 1.1 mm 0 mps 746 mmHg 79%
    23:00 +17°C° 1.1 mm 0 mps 746 mmHg 84%

    Day after tomorrow, 25 May, Saturday

    Time Temperature Precipitation Wind Pressure Humidity
    00:00 +19°C° 0.4 mm 1 mps 746 mmHg 86%
    01:00 +17°C° 0.4 mm 2 mps 745 mmHg 88%
    02:00 +17°C° 0.4 mm 3 mps 745 mmHg 90%
    03:00 +17°C° 0 mm 2 mps 745 mmHg 89%
    04:00 +17°C° 0 mm 2 mps 745 mmHg 88%
    05:00 +17°C° 0 mm 2 mps 745 mmHg 87%
    06:00 +19°C° 0.5 mm 2 mps 745 mmHg 82%
    07:00 +20°C° 0.5 mm 2 mps 745 mmHg 77%
    08:00 +23°C° 0.5 mm 2 mps 745 mmHg 73%
    09:00 +23°C° 0.8 mm 2 mps 745 mmHg 68%
    10:00 +24°C° 0.8 mm 1 mps 744 mmHg 64%
    11:00 +25°C° 0.8 mm 1 mps 744 mmHg 59%
    12:00 +25°C° 0.1 mm 1 mps 744 mmHg 57%
    13:00 +26°C° 0.1 mm 1 mps 744 mmHg 56%
    14:00 +26°C° 0.1 mm 1 mps 744 mmHg 54%
    15:00 +26°C° 0.4 mm 1 mps 743 mmHg 56%
    16:00 +24°C° 0.4 mm 0 mps 743 mmHg 58%
    17:00 +24°C° 0.4 mm 0 mps 743 mmHg 60%
    18:00 +24°C° 1.7 mm 1 mps 743 mmHg 65%
    19:00 +22°C° 1.7 mm 1 mps 743 mmHg 71%
    20:00 +21°C° 1.7 mm 1 mps 743 mmHg 77%
    21:00 +19°C° 0 mm 2 mps 743 mmHg 80%
    22:00 +18°C° 0 mm 2 mps 743 mmHg 83%
    23:00 +18°C° 0 mm 2 mps 743 mmHg 87%

    26 May, Sunday

    Time Temperature Precipitation Wind Pressure Humidity
    00:00 +17°C° 0.1 mm 3 mps 743 mmHg 89%
    01:00 +16°C° 0.1 mm 3 mps 743 mmHg 91%
    02:00 +16°C° 0.1 mm 3 mps 743 mmHg 94%
    03:00 +16°C° 0 mm 3 mps 744 mmHg 94%
    04:00 +16°C° 0 mm 3 mps 744 mmHg 94%
    05:00 +15°C° 0 mm 4 mps 744 mmHg 94%
    06:00 +17°C° 0 mm 4 mps 744 mmHg 89%
    07:00 +18°C° 0 mm 4 mps 745 mmHg 85%
    08:00 +19°C° 0 mm 4 mps 745 mmHg 80%
    09:00 +20°C° 0 mm 4 mps 745 mmHg 75%
    10:00 +21°C° 0 mm 5 mps 745 mmHg 70%
    11:00 +22°C° 0 mm 5 mps 746 mmHg 65%
    12:00 +22°C° 0 mm 5 mps 746 mmHg 63%
    13:00 +22°C° 0 mm 5 mps 746 mmHg 60%
    14:00 +22°C° 0 mm 6 mps 746 mmHg 58%
    15:00 +22°C° 0 mm 5 mps 746 mmHg 60%
    16:00 +22°C° 0 mm 4 mps 746 mmHg 62%
    17:00 +21°C° 0 mm 4 mps 746 mmHg 64%
    18:00 +20°C° 0 mm 3 mps 746 mmHg 68%
    19:00 +18°C° 0 mm 3 mps 746 mmHg 72%
    20:00 +17°C° 0 mm 2 mps 747 mmHg 75%
    21:00 +16°C° 0 mm 2 mps 747 mmHg 77%
    22:00 +14°C° 0 mm 3 mps 747 mmHg 78%
    23:00 +14°C° 0 mm 3 mps 747 mmHg 79%

    27 May, Monday

    Time Temperature Precipitation Wind Pressure Humidity
    00:00 +13°C° 0 mm 3 mps 747 mmHg 81%
    01:00 +13°C° 0 mm 3 mps 748 mmHg 82%
    02:00 +13°C° 0 mm 3 mps 748 mmHg 84%
    03:00 +13°C° 0 mm 3 mps 748 mmHg 86%
    04:00 +13°C° 0 mm 3 mps 748 mmHg 87%
    05:00 +13°C° 0 mm 3 mps 748 mmHg 89%
    06:00 +16°C° 0 mm 3 mps 749 mmHg 84%
    07:00 +17°C° 0 mm 3 mps 749 mmHg 79%
    08:00 +19°C° 0 mm 3 mps 749 mmHg 74%
    09:00 +20°C° 0 mm 4 mps 750 mmHg 69%
    10:00 +21°C° 0 mm 4 mps 750 mmHg 65%
    11:00 +22°C° 0 mm 4 mps 750 mmHg 60%
    12:00 +23°C° 0 mm 4 mps 750 mmHg 59%
    13:00 +23°C° 0 mm 4 mps 750 mmHg 58%
    14:00 +25°C° 0 mm 3 mps 750 mmHg 57%
    15:00 +24°C° 0.2 mm 3 mps 750 mmHg 61%
    16:00 +24°C° 0.2 mm 3 mps 750 mmHg 65%
    17:00 +24°C° 0.2 mm 3 mps 750 mmHg 69%
    18:00 +22°C° 0.2 mm 3 mps 750 mmHg 76%
    19:00 +20°C° 0.2 mm 2 mps 750 mmHg 83%
    20:00 +19°C° 0.2 mm 2 mps 750 mmHg 90%
    21:00 +18°C° 0 mm 2 mps 750 mmHg 91%
    22:00 +18°C° 0 mm 2 mps 750 mmHg 92%
    23:00 +18°C° 0 mm 2 mps 750 mmHg 93%

    28 May, Tuesday

    Time Temperature Precipitation Wind Pressure Humidity
    00:00 +17°C° 0.1 mm 2 mps 750 mmHg 93%
    01:00 +17°C° 0.1 mm 3 mps 750 mmHg 94%
    02:00 +17°C° 0.1 mm 3 mps 750 mmHg 94%
    03:00 +17°C° 0 mm 3 mps 750 mmHg 94%
    04:00 +17°C° 0 mm 3 mps 750 mmHg 93%
    05:00 +17°C° 0 mm 3 mps 751 mmHg 93%
    06:00 +19°C° 0 mm 4 mps 751 mmHg 86%
    07:00 +20°C° 0 mm 5 mps 751 mmHg 79%
    08:00 +21°C° 0 mm 5 mps 751 mmHg 72%
    09:00 +22°C° 0 mm 6 mps 750 mmHg 70%
    10:00 +24°C° 0 mm 7 mps 750 mmHg 67%
    11:00 +26°C° 0 mm 7 mps 750 mmHg 65%
    12:00 +26°C° 0 mm 8 mps 750 mmHg 63%
    13:00 +27°C° 0 mm 8 mps 750 mmHg 61%
    14:00 +27°C° 0 mm 8 mps 749 mmHg 59%
    15:00 +27°C° 0 mm 7 mps 749 mmHg 62%
    16:00 +26°C° 0 mm 6 mps 749 mmHg 65%
    17:00 +26°C° 0 mm 5 mps 749 mmHg 68%
    18:00 +25°C° 0 mm 5 mps 749 mmHg 72%
    19:00 +23°C° 0 mm 5 mps 748 mmHg 75%
    20:00 +22°C° 0 mm 5 mps 748 mmHg 79%
    21:00 +22°C° 0 mm 5 mps 748 mmHg 75%
    22:00 +22°C° 0 mm 5 mps 748 mmHg 71%
    23:00 +23°C° 0 mm 6 mps 748 mmHg 68%
    Show more